Weather History for KUTA

Nearest airport to NA, NA.

See history from more local stations
Change the Weather History Date:

Thursday, July 25, 2013

  Actual Average (KMEM) Record (KMEM)
Temperature  
Mean Temperature 73 °F 83 °F  
Max Temperature 80 °F 92 °F 101 °F (1952)
Min Temperature 66 °F 74 °F 62 °F (1911)
Degree Days  
Heating Degree Days 0 0  
Month to date heating degree days 0  
Since 1 June heating degree days 0  
Since 1 July heating degree days 0  
Cooling Degree Days 8 18  
Month to date cooling degree days 446  
Year to date cooling degree days 1205  
Since 1 June cooling degree days 884  
Growing Degree Days 23 (Base 50)    
Moisture  
Dew Point 64 °F    
Average Humidity 73    
Maximum Humidity 94    
Minimum Humidity 48    
Precipitation  
Precipitation 0.00 in 0.16 in 1.94 in (1977)
Month to date precipitation 3.73  
Year to date precipitation 31.64  
Snow  
Snow 0.00 in 0.00 in - ()
Month to date snowfall 0.0  
Since 1 June snowfall 0.0  
Since 1 July snowfall 0.0  
Snow Depth -    
Sea Level Pressure  
Sea Level Pressure 30.05 in    
Wind  
Wind Speed 7 mph (North)    
Max Wind Speed 13 mph    
Max Gust Speed 17 mph    
Visibility 10 miles    
Events      
T = Trace of Precipitation, MM = Missing Value Source: NWS Daily Summary

Daily Weather History Graph

Daily Weather History Graph

Search for Another Location

Airport or City:

Trip Planner

Search our weather history database for the weather conditions in past years. The results will help you decide how hot, cold, wet, or windy it might be!

Date:

Astronomy

Jul. 25, 2013 Rise Set
Actual Time 6:06 AM CDT 8:08 PM CDT
Civil Twilight 5:38 AM CDT 8:36 PM CDT
Nautical Twilight 5:04 AM CDT 9:11 PM CDT
Astronomical Twilight 4:27 AM CDT 9:47 PM CDT
Moon 10:02 PM CDT (7/25) 9:25 AM CDT (7/25)
Length of Visible Light 14h 58m
Length of Day
14h 02m
Waning Gibbous, 88% of the Moon is Illuminated
Jul 25
Waning Gibbous
Jul 29
Last Quarter
Aug 6
New
Aug 14
First Quarter
Aug 20
Full

Hourly Weather History & Observations

Time (CDT) Temp. Heat Index Dew Point Humidity Pressure Visibility Wind Dir Wind Speed Gust Speed Precip Events Conditions
12:15 AM 73.4 °F - 69.8 °F 88% 29.98 in 10.0 mi North 5.8 mph - N/A   Scattered Clouds
12:35 AM 71.6 °F - 69.8 °F 94% 29.97 in 10.0 mi North 5.8 mph - N/A   Scattered Clouds
12:55 AM 71.6 °F - 68.0 °F 88% 29.97 in 10.0 mi NNW 6.9 mph - N/A   Scattered Clouds
1:15 AM 71.6 °F - 69.8 °F 94% 29.98 in 10.0 mi North 6.9 mph - N/A   Scattered Clouds
1:35 AM 71.6 °F - 68.0 °F 88% 29.98 in 10.0 mi North 5.8 mph - N/A   Scattered Clouds
1:55 AM 71.6 °F - 68.0 °F 88% 29.97 in 10.0 mi North 5.8 mph - N/A   Clear
2:15 AM 69.8 °F - 68.0 °F 94% 29.97 in 10.0 mi North 8.1 mph - N/A   Clear
2:35 AM 69.8 °F - 68.0 °F 94% 29.97 in 10.0 mi North 6.9 mph - N/A   Clear
2:55 AM 69.8 °F - 66.2 °F 88% 29.97 in 10.0 mi North 5.8 mph - N/A   Clear
3:15 AM 69.8 °F - 66.2 °F 88% 29.98 in 10.0 mi North 6.9 mph - N/A   Clear
3:35 AM 69.8 °F - 64.4 °F 83% 29.98 in 10.0 mi North 6.9 mph - N/A   Clear
3:55 AM 68.0 °F - 64.4 °F 88% 29.98 in 10.0 mi North 5.8 mph - N/A   Clear
4:15 AM 68.0 °F - 64.4 °F 88% 29.98 in 10.0 mi North 5.8 mph - N/A   Clear
4:35 AM 68.0 °F - 64.4 °F 88% 29.99 in 10.0 mi North 5.8 mph - N/A   Clear
4:55 AM 66.2 °F - 64.4 °F 94% 30.00 in 10.0 mi North 4.6 mph - N/A   Clear
5:15 AM 66.2 °F - 64.4 °F 94% 30.01 in 10.0 mi NNW 5.8 mph - N/A   Clear
5:35 AM 66.2 °F - 64.4 °F 94% 30.01 in 10.0 mi NNW 8.1 mph - N/A   Clear
5:55 AM 66.2 °F - 64.4 °F 94% 30.03 in 10.0 mi NNW 6.9 mph - N/A   Clear
6:15 AM 66.2 °F - 64.4 °F 94% 30.03 in 10.0 mi North 5.8 mph - N/A   Clear
6:35 AM 66.2 °F - 64.4 °F 94% 30.03 in 10.0 mi North 4.6 mph - N/A   Clear
6:55 AM 68.0 °F - 64.4 °F 88% 30.03 in 10.0 mi North 5.8 mph - N/A   Clear
7:15 AM 68.0 °F - 64.4 °F 88% 30.03 in 10.0 mi North 4.6 mph - N/A   Clear
7:35 AM 69.8 °F - 66.2 °F 88% 30.04 in 10.0 mi North 5.8 mph - N/A   Clear
7:55 AM 69.8 °F - 64.4 °F 83% 30.05 in 10.0 mi North 5.8 mph - N/A   Clear
8:15 AM 71.6 °F - 64.4 °F 78% 30.05 in 10.0 mi North 6.9 mph - N/A   Clear
8:35 AM 71.6 °F - 64.4 °F 78% 30.05 in 10.0 mi NNE 5.8 mph - N/A   Clear
8:55 AM 73.4 °F - 64.4 °F 73% 30.06 in 10.0 mi North 8.1 mph - N/A   Clear
9:15 AM 73.4 °F - 64.4 °F 73% 30.06 in 10.0 mi North 5.8 mph - N/A   Clear
9:35 AM 75.2 °F - 64.4 °F 69% 30.06 in 10.0 mi North 9.2 mph - N/A   Clear
9:55 AM 77.0 °F - 64.4 °F 65% 30.06 in 10.0 mi North 9.2 mph - N/A   Clear
10:15 AM 77.0 °F - 62.6 °F 61% 30.06 in 10.0 mi North 8.1 mph - N/A   Clear
10:35 AM 77.0 °F - 62.6 °F 61% 30.07 in 10.0 mi NNW 12.7 mph - N/A   Clear
10:55 AM 78.8 °F - 62.6 °F 57% 30.08 in 10.0 mi North 10.4 mph - N/A   Clear
11:15 AM 78.8 °F - 62.6 °F 57% 30.08 in 10.0 mi North 9.2 mph - N/A   Clear
11:35 AM 78.8 °F - 60.8 °F 54% 30.09 in 10.0 mi North 11.5 mph 16.1 mph N/A   Clear
11:55 AM 78.8 °F - 60.8 °F 54% 30.09 in 10.0 mi North 8.1 mph 16.1 mph N/A   Clear
12:15 PM 78.8 °F - 60.8 °F 54% 30.08 in 10.0 mi North 11.5 mph 16.1 mph N/A   Clear
12:35 PM 80.6 °F 81.5 °F 60.8 °F 51% 30.08 in 10.0 mi North 11.5 mph 16.1 mph N/A   Clear
12:55 PM 80.6 °F 81.5 °F 60.8 °F 51% 30.08 in 10.0 mi North 11.5 mph - N/A   Clear
1:15 PM 80.6 °F 81.5 °F 60.8 °F 51% 30.08 in 10.0 mi North 9.2 mph - N/A   Clear
1:35 PM 80.6 °F 81.5 °F 60.8 °F 51% 30.08 in 10.0 mi North 8.1 mph - N/A   Clear
1:55 PM 80.6 °F 81.8 °F 62.6 °F 54% 30.08 in 10.0 mi North 6.9 mph - N/A   Clear
2:15 PM 80.6 °F 81.5 °F 60.8 °F 51% 30.07 in 10.0 mi NNW 9.2 mph - N/A   Clear
2:35 PM 80.6 °F 81.8 °F 62.6 °F 54% 30.07 in 10.0 mi North 11.5 mph - N/A   Clear
2:55 PM 80.6 °F 81.5 °F 60.8 °F 51% 30.07 in 10.0 mi North 11.5 mph - N/A   Clear
3:15 PM 80.6 °F 81.1 °F 59.0 °F 48% 30.08 in 10.0 mi NW 11.5 mph 16.1 mph N/A   Clear
3:35 PM 80.6 °F 81.1 °F 59.0 °F 48% 30.08 in 10.0 mi NNW 10.4 mph 17.3 mph N/A   Clear
3:55 PM 80.6 °F 81.5 °F 60.8 °F 51% 30.08 in 10.0 mi NNW 11.5 mph - N/A   Clear
4:15 PM 80.6 °F 81.5 °F 60.8 °F 51% 30.08 in 10.0 mi NNW 11.5 mph - N/A   Clear
4:35 PM 78.8 °F - 60.8 °F 54% 30.08 in 10.0 mi North 9.2 mph - N/A   Clear
4:55 PM 78.8 °F - 62.6 °F 57% 30.08 in 10.0 mi North 9.2 mph - N/A   Clear
5:15 PM 78.8 °F - 60.8 °F 54% 30.08 in 10.0 mi NNW 9.2 mph - N/A   Clear
5:35 PM 78.8 °F - 60.8 °F 54% 30.08 in 10.0 mi North 9.2 mph - N/A   Clear
5:55 PM 77.0 °F - 62.6 °F 61% 30.07 in 10.0 mi NNW 9.2 mph - N/A   Clear
6:15 PM 77.0 °F - 60.8 °F 57% 30.07 in 10.0 mi NNW 9.2 mph - N/A   Clear
6:35 PM 77.0 °F - 60.8 °F 57% 30.06 in 10.0 mi North 6.9 mph - N/A   Clear
6:55 PM 73.4 °F - 62.6 °F 69% 30.06 in 10.0 mi North 5.8 mph - N/A   Clear
7:15 PM 73.4 °F - 62.6 °F 69% 30.07 in 10.0 mi NNW 5.8 mph - N/A   Clear
7:35 PM 73.4 °F - 64.4 °F 73% 30.06 in 10.0 mi NNW 3.5 mph - N/A   Clear
7:55 PM 73.4 °F - 62.6 °F 69% 30.07 in 10.0 mi NNW 4.6 mph - N/A   Clear
8:15 PM 73.4 °F - 62.6 °F 69% 30.07 in 10.0 mi NNW 6.9 mph - N/A   Clear
8:35 PM 71.6 °F - 62.6 °F 73% 30.07 in 10.0 mi NNW 8.1 mph - N/A   Clear
8:55 PM 69.8 °F - 62.6 °F 78% 30.07 in 10.0 mi NNW 5.8 mph - N/A   Clear
9:15 PM 69.8 °F - 62.6 °F 78% 30.06 in 10.0 mi North 6.9 mph - N/A   Clear
9:35 PM 69.8 °F - 64.4 °F 83% 30.06 in 10.0 mi NNE 4.6 mph - N/A   Clear
9:55 PM 69.8 °F - 64.4 °F 83% 30.06 in 10.0 mi NE 3.5 mph - N/A   Clear
10:15 PM 69.8 °F - 64.4 °F 83% 30.06 in 10.0 mi NE 3.5 mph - N/A   Clear
10:35 PM 69.8 °F - 64.4 °F 83% 30.06 in 10.0 mi NE 3.5 mph - N/A   Clear
10:55 PM 68.0 °F - 64.4 °F 88% 30.06 in 10.0 mi Calm Calm - N/A   Clear
11:15 PM 66.2 °F - 62.6 °F 88% 30.07 in 10.0 mi WSW 3.5 mph - N/A   Clear
11:35 PM 68.0 °F - 62.6 °F 83% 30.07 in 10.0 mi NW 3.5 mph - N/A   Clear
11:55 PM 66.2 °F - 62.6 °F 88% 30.08 in 10.0 mi Calm Calm - N/A   Clear